Tracking 17844 objects as of 25-August-2016
HD Live streaming from Space Station
objects crossing your sky now

COSMOS 2418 (GLONASS)

Track COSMOS 2418 (GLONASS) now!
COSMOS 2418 (GLONASS) is classified as:


NORAD ID: 28916
Int'l Code: 2005-050B
Perigee: 19,102.8 km
Apogee: 19,170.8 km
Inclination: 65.4 °
Period: 675.7 minutes
Semi major axis: 25507 km
RCS: 3.9905 m2 (large)
Launch date: December 25, 2005
Source: Commonwealth of Independent States (former USSR) (CIS)
Launch site: TYURATAM MISSILE AND SPACE COMPLEX (TTMTR)
SV:
Your satellite tracking list
Your tracking list is empty





NASA's NSSDC Master Catalog

Two Line Element Set (TLE):
1 28916U 05050B   16237.66844547 +.00000005 +00000-0 +00000-0 0  9994
2 28916 065.3709 075.9395 0013326 334.7698 180.0018 02.13104637082983
Source of the keplerian elements: AFSPC

N2YO: 590